QPF
0.00 0.01 0.01 0.01 0.01 0.01 0.01 0.01 0.01 0.01 0.01 0.00 0.00 0.00 0.00 0.00 0.00 0.00 0.00 0.00 0.00 0.01 0.02 0.02 0.03 0.03 0.02 0.01 0.00 0.00 0.00 0.00 0.00 0.00 0.00 0.00 0.00 0.00 0.00 0.00 0.01 0.01 0.02
0.00 0.01 0.01 0.01 0.01 0.01 0.01 0.01 0.01 0.01 0.01 0.00 0.00 0.00 0.00 0.00 0.00 0.00 0.00 0.01 0.01 0.02 0.03 0.03 0.05 0.03 0.02 0.01 0.00 0.00 0.00 0.00 0.00 0.00 0.00 0.00 0.00 0.00 0.00 0.00 0.00 0.00 0.00
0.00 0.01 0.01 0.01 0.01 0.01 0.01 0.01 0.01 0.00 0.00 0.00 0.00 0.00 0.00 0.00 0.00 0.00 0.00 0.01 0.02 0.02 0.03 0.04 0.05 0.03 0.02 0.01 0.00 0.00 0.00 0.00 0.00 0.00 0.00 0.00 0.00 0.00 0.00 0.00 0.00 0.00 0.00
0.00 0.00 0.01 0.01 0.01 0.01 0.01 0.01 0.00 0.00 0.00 0.00 0.00 0.00 0.00 0.00 0.00 0.00 0.01 0.01 0.02 0.03 0.03 0.03 0.02 0.02 0.01 0.00 0.00 0.00 0.00 0.00 0.00 0.00 0.00 0.00 0.00 0.01 0.01 0.01 0.01 0.01 0.01
0.00 0.00 0.00 0.01 0.01 0.01 0.01 0.00 0.00 0.00 0.00 0.00 0.00 0.00 0.00 0.00 0.00 0.01 0.01 0.01 0.02 0.02 0.01 0.01 0.01 0.01 0.01 0.00 0.00 0.00 0.00 0.00 0.00 0.00 0.00 0.00 0.00 0.01 0.01 0.01 0.01 0.01 0.01
0.00 0.00 0.00 0.01 0.01 0.01 0.00 0.00 0.00 0.00 0.00 0.00 0.00 0.00 0.00 0.00 0.00 0.00 0.01 0.00 0.01 0.01 0.01 0.01 0.01 0.00 0.00 0.00 0.00 0.00 0.00 0.00 0.00 0.00 0.00 0.00 0.00 0.02 0.02 0.02 0.02 0.02 0.03
0.00 0.00 0.00 0.01 0.01 0.01 0.00 0.00 0.00 0.00 0.00 0.00 0.00 0.00 0.00 0.00 0.00 0.00 0.00 0.00 0.00 0.00 0.00 0.00 0.00 0.00 0.00 0.00 0.00 0.00 0.00 0.00 0.00 0.00 0.00 0.00 0.01 0.04 0.03 0.02 0.02 0.03 0.04
0.00 0.00 0.00 0.01 0.00 0.00 0.00 0.00 0.00 0.00 0.00 0.00 0.00 0.00 0.00 0.00 0.00 0.00 0.00 0.00 0.00 0.00 0.00 0.00 0.00 0.00 0.00 0.00 0.00 0.00 0.00 0.00 0.00 0.00 0.00 0.00 0.01 0.02 0.02 0.01 0.01 0.02 0.02
0.00 0.00 0.00 0.00 0.00 0.00 0.00 0.00 0.00 0.00 0.00 0.00 0.00 0.00 0.00 0.00 0.00 0.00 0.00 0.00 0.00 0.00 0.00 0.00 0.00 0.00 0.00 0.00 0.00 0.00 0.00 0.00 0.00 0.00 0.00 0.00 0.01 0.01 0.01 0.01 0.01 0.01 0.01
0.00 0.00 0.00 0.00 0.00 0.00 0.00 0.00 0.00 0.00 0.00 0.00 0.00 0.00 0.00 0.00 0.00 0.00 0.00 0.00 0.00 0.00 0.00 0.00 0.00 0.00 0.00 0.00 0.00 0.00 0.00 0.00 0.00 0.00 0.00 0.00 0.01 0.01 0.01 0.00 0.00 0.00 0.00
0.01 0.00 0.00 0.00 0.00 0.00 0.00 0.00 0.00 0.00 0.00 0.00 0.00 0.00 0.00 0.00 0.00 0.00 0.00 0.00 0.00 0.00 0.00 0.00 0.00 0.00 0.00 0.00 0.00 0.00 0.00 0.00 0.00 0.00 0.00 0.00 0.01 0.01 0.00 0.00 0.00 0.00 0.00
0.01 0.01 0.00 0.00 0.00 0.00 0.00 0.00 0.00 0.00 0.00 0.00 0.00 0.00 0.00 0.00 0.00 0.00 0.00 0.00 0.00 0.00 0.00 0.00 0.00 0.00 0.00 0.00 0.00 0.00 0.00 0.00 0.00 0.00 0.00 0.00 0.00 0.00 0.00 0.00 0.00 0.00 0.00
0.00 0.00 0.00 0.00 0.00 0.00 0.00 0.00 0.00 0.00 0.00 0.00 0.00 0.00 0.00 0.00 0.00 0.00 0.00 0.00 0.00 0.00 0.00 0.00 0.00 0.00 0.00 0.00 0.00 0.00 0.00 0.00 0.00 0.00 0.00 0.00 0.00 0.00 0.00 0.00 0.00 0.00 0.00
0.00 0.00 0.00 0.00 0.00 0.00 0.00 0.00 0.00 0.00 0.00 0.00 0.00 0.00 0.00 0.00 0.00 0.00 0.00 0.00 0.00 0.00 0.00 0.00 0.00 0.00 0.00 0.00 0.00 0.00 0.00 0.00 0.00 0.00 0.00 0.00 0.00 0.00 0.00 0.00 0.00 0.00 0.00
0.00 0.00 0.00 0.00 0.00 0.00 0.00 0.00 0.00 0.00 0.00 0.00 0.00 0.00 0.00 0.00 0.00 0.00 0.00 0.00 0.00 0.00 0.00 0.00 0.00 0.00 0.00 0.00 0.00 0.00 0.00 0.00 0.00 0.00 0.00 0.00 0.00 0.00 0.00 0.00 0.00 0.00 0.00
0.00 0.00 0.01 0.00 0.00 0.00 0.00 0.00 0.00 0.00 0.00 0.00 0.00 0.00 0.00 0.00 0.00 0.00 0.00 0.00 0.00 0.00 0.00 0.00 0.00 0.00 0.00 0.00 0.00 0.00 0.00 0.00 0.00 0.00 0.00 0.00 0.00 0.00 0.00 0.00 0.00 0.00 0.00
0.01 0.01 0.01 0.01 0.01 0.01 0.01 0.01 0.00 0.00 0.00 0.00 0.00 0.00 0.00 0.00 0.00 0.00 0.00 0.00 0.00 0.00 0.00 0.00 0.00 0.00 0.00 0.00 0.00 0.00 0.00 0.00 0.00 0.00 0.00 0.00 0.00 0.00 0.00 0.00 0.00 0.00 0.00
0.01 0.01 0.01 0.01 0.01 0.01 0.02 0.02 0.02 0.01 0.01 0.01 0.00 0.00 0.00 0.00 0.00 0.00 0.00 0.00 0.00 0.00 0.00 0.00 0.00 0.00 0.00 0.00 0.00 0.00 0.00 0.00 0.00 0.00 0.00 0.00 0.00 0.00 0.00 0.00 0.00 0.00 0.00
0.00 0.01 0.01 0.01 0.01 0.02 0.04 0.04 0.04 0.04 0.03 0.03 0.01 0.00 0.00 0.00 0.00 0.00 0.00 0.00 0.00 0.00 0.00 0.00 0.00 0.00 0.00 0.00 0.00 0.00 0.00 0.00 0.00 0.00 0.00 0.00 0.00 0.00 0.00 0.00 0.00 0.00 0.00
0.00 0.00 0.00 0.01 0.01 0.03 0.05 0.05 0.05 0.04 0.04 0.04 0.02 0.02 0.02 0.02 0.01 0.00 0.00 0.00 0.00 0.00 0.00 0.00 0.00 0.00 0.00 0.00 0.00 0.00 0.00 0.00 0.00 0.00 0.00 0.00 0.00 0.00 0.00 0.00 0.00 0.00 0.00
0.00 0.00 0.00 0.00 0.01 0.02 0.03 0.02 0.02 0.02 0.04 0.04 0.04 0.05 0.04 0.04 0.03 0.02 0.01 0.01 0.00 0.00 0.00 0.00 0.00 0.00 0.00 0.00 0.00 0.00 0.00 0.00 0.00 0.00 0.00 0.00 0.00 0.00 0.00 0.00 0.00 0.00 0.00
0.00 0.00 0.00 0.00 0.00 0.01 0.01 0.01 0.02 0.03 0.04 0.05 0.07 0.06 0.05 0.06 0.05 0.04 0.03 0.02 0.02 0.01 0.01 0.01 0.01 0.01 0.01 0.00 0.00 0.00 0.00 0.00 0.00 0.00 0.00 0.00 0.00 0.00 0.00 0.00 0.00 0.00 0.00
0.00 0.00 0.00 0.00 0.00 0.01 0.02 0.03 0.03 0.04 0.03 0.03 0.03 0.03 0.04 0.06 0.08 0.07 0.07 0.05 0.05 0.03 0.03 0.03 0.03 0.02 0.02 0.01 0.01 0.00 0.00 0.00 0.00 0.00 0.00 0.00 0.00 0.00 0.00 0.00 0.00 0.00 0.00
0.00 0.00 0.00 0.00 0.00 0.00 0.01 0.02 0.02 0.01 0.01 0.01 0.02 0.04 0.07 0.09 0.10 0.11 0.11 0.09 0.07 0.06 0.06 0.06 0.05 0.04 0.03 0.02 0.01 0.01 0.00 0.00 0.00 0.00 0.00 0.00 0.00 0.00 0.00 0.00 0.00 0.00 0.00
0.00 0.00 0.00 0.00 0.00 0.00 0.00 0.01 0.01 0.01 0.01 0.01 0.03 0.05 0.06 0.08 0.10 0.11 0.10 0.10 0.08 0.09 0.09 0.09 0.08 0.06 0.05 0.03 0.02 0.01 0.01 0.00 0.00 0.00 0.00 0.00 0.00 0.00 0.00 0.00 0.00 0.00 0.00
0.00 0.00 0.00 0.00 0.00 0.00 0.00 0.00 0.01 0.01 0.02 0.02 0.03 0.04 0.05 0.08 0.09 0.09 0.10 0.10 0.11 0.11 0.10 0.10 0.09 0.06 0.05 0.03 0.02 0.01 0.01 0.00 0.00 0.00 0.00 0.00 0.00 0.00 0.00 0.00 0.00 0.00 0.00
MSLP
1012.40 1012.18 1012.13 1012.29 1012.60 1013.01 1013.47 1013.89 1014.25 1014.53 1014.73 1014.90 1015.08 1015.28 1015.54 1015.83 1016.13 1016.42 1016.66 1016.84 1016.98 1017.09 1017.20 1017.34 1017.53 1017.75 1018.01 1018.26 1018.48 1018.67 1018.80 1018.90 1018.97 1019.02 1019.07 1019.11 1019.15 1019.17 1019.16 1019.13 1019.08 1019.03 1019.00
1012.23 1012.06 1012.06 1012.24 1012.57 1013.01 1013.48 1013.94 1014.34 1014.65 1014.90 1015.10 1015.30 1015.52 1015.78 1016.06 1016.34 1016.60 1016.83 1017.00 1017.13 1017.25 1017.37 1017.53 1017.73 1017.96 1018.21 1018.46 1018.67 1018.84 1018.97 1019.07 1019.14 1019.20 1019.26 1019.32 1019.36 1019.38 1019.36 1019.31 1019.24 1019.17 1019.12
1012.03 1011.93 1011.98 1012.20 1012.57 1013.03 1013.54 1014.03 1014.46 1014.81 1015.10 1015.33 1015.55 1015.78 1016.02 1016.28 1016.52 1016.75 1016.93 1017.08 1017.21 1017.33 1017.46 1017.64 1017.85 1018.10 1018.36 1018.60 1018.81 1018.97 1019.10 1019.20 1019.28 1019.36 1019.43 1019.50 1019.55 1019.56 1019.53 1019.47 1019.39 1019.30 1019.25
1011.87 1011.85 1011.97 1012.24 1012.64 1013.13 1013.66 1014.17 1014.63 1015.01 1015.32 1015.58 1015.81 1016.03 1016.25 1016.47 1016.67 1016.85 1017.00 1017.12 1017.23 1017.36 1017.51 1017.71 1017.94 1018.21 1018.47 1018.72 1018.93 1019.09 1019.22 1019.33 1019.42 1019.51 1019.60 1019.67 1019.72 1019.73 1019.69 1019.62 1019.53 1019.44 1019.38
1011.81 1011.89 1012.08 1012.40 1012.83 1013.33 1013.87 1014.38 1014.84 1015.23 1015.55 1015.81 1016.04 1016.26 1016.46 1016.64 1016.80 1016.94 1017.06 1017.16 1017.26 1017.40 1017.57 1017.79 1018.05 1018.33 1018.61 1018.86 1019.08 1019.25 1019.38 1019.49 1019.59 1019.68 1019.77 1019.84 1019.89 1019.89 1019.85 1019.77 1019.68 1019.59 1019.53
1011.89 1012.06 1012.32 1012.68 1013.13 1013.63 1014.14 1014.62 1015.05 1015.43 1015.74 1016.00 1016.23 1016.45 1016.64 1016.81 1016.95 1017.07 1017.16 1017.25 1017.36 1017.51 1017.70 1017.94 1018.23 1018.53 1018.81 1019.07 1019.29 1019.46 1019.59 1019.70 1019.79 1019.88 1019.97 1020.03 1020.06 1020.05 1020.00 1019.92 1019.83 1019.76 1019.72
1012.10 1012.34 1012.66 1013.05 1013.50 1013.97 1014.43 1014.86 1015.24 1015.58 1015.87 1016.13 1016.37 1016.60 1016.80 1016.98 1017.13 1017.25 1017.35 1017.45 1017.57 1017.73 1017.94 1018.20 1018.49 1018.80 1019.10 1019.35 1019.56 1019.72 1019.84 1019.94 1020.03 1020.10 1020.17 1020.22 1020.24 1020.22 1020.17 1020.09 1020.02 1019.97 1019.96
1012.39 1012.69 1013.05 1013.46 1013.88 1014.31 1014.70 1015.06 1015.38 1015.67 1015.94 1016.20 1016.46 1016.72 1016.96 1017.18 1017.37 1017.52 1017.64 1017.75 1017.89 1018.06 1018.28 1018.55 1018.85 1019.15 1019.44 1019.68 1019.88 1020.02 1020.12 1020.21 1020.27 1020.33 1020.38 1020.42 1020.43 1020.40 1020.35 1020.29 1020.24 1020.22 1020.25
1012.69 1013.03 1013.42 1013.82 1014.22 1014.59 1014.91 1015.20 1015.45 1015.70 1015.95 1016.22 1016.52 1016.83 1017.13 1017.41 1017.65 1017.84 1017.99 1018.13 1018.28 1018.46 1018.68 1018.95 1019.24 1019.53 1019.80 1020.02 1020.19 1020.31 1020.39 1020.45 1020.50 1020.54 1020.58 1020.61 1020.61 1020.60 1020.57 1020.53 1020.51 1020.53 1020.58
1012.92 1013.29 1013.69 1014.09 1014.46 1014.78 1015.04 1015.26 1015.47 1015.68 1015.93 1016.23 1016.57 1016.94 1017.31 1017.65 1017.94 1018.18 1018.36 1018.52 1018.68 1018.86 1019.07 1019.33 1019.60 1019.87 1020.12 1020.32 1020.47 1020.56 1020.62 1020.66 1020.69 1020.73 1020.76 1020.79 1020.80 1020.81 1020.80 1020.80 1020.81 1020.86 1020.95
1013.04 1013.43 1013.84 1014.24 1014.58 1014.86 1015.09 1015.27 1015.44 1015.65 1015.91 1016.24 1016.63 1017.06 1017.48 1017.88 1018.21 1018.48 1018.69 1018.86 1019.02 1019.19 1019.39 1019.63 1019.89 1020.14 1020.37 1020.55 1020.68 1020.76 1020.81 1020.83 1020.86 1020.89 1020.92 1020.97 1021.01 1021.04 1021.07 1021.10 1021.15 1021.22 1021.33
1013.04 1013.44 1013.86 1014.26 1014.59 1014.86 1015.06 1015.23 1015.41 1015.62 1015.91 1016.27 1016.70 1017.17 1017.64 1018.07 1018.43 1018.71 1018.92 1019.09 1019.24 1019.41 1019.60 1019.83 1020.08 1020.33 1020.55 1020.73 1020.85 1020.92 1020.96 1020.98 1021.01 1021.04 1021.09 1021.15 1021.22 1021.29 1021.36 1021.42 1021.50 1021.59 1021.70
1012.94 1013.35 1013.77 1014.16 1014.50 1014.77 1014.98 1015.17 1015.36 1015.60 1015.92 1016.32 1016.77 1017.27 1017.75 1018.19 1018.55 1018.83 1019.04 1019.20 1019.35 1019.51 1019.71 1019.94 1020.20 1020.46 1020.69 1020.88 1021.01 1021.09 1021.13 1021.15 1021.17 1021.22 1021.28 1021.36 1021.46 1021.57 1021.66 1021.76 1021.85 1021.95 1022.04
1012.78 1013.17 1013.59 1013.98 1014.33 1014.62 1014.85 1015.07 1015.30 1015.58 1015.93 1016.35 1016.82 1017.31 1017.79 1018.21 1018.55 1018.82 1019.02 1019.18 1019.34 1019.52 1019.74 1020.00 1020.29 1020.58 1020.84 1021.05 1021.20 1021.29 1021.34 1021.37 1021.40 1021.44 1021.51 1021.61 1021.73 1021.86 1021.98 1022.10 1022.20 1022.28 1022.35
1012.58 1012.94 1013.34 1013.73 1014.08 1014.39 1014.66 1014.92 1015.20 1015.51 1015.89 1016.32 1016.79 1017.26 1017.72 1018.11 1018.44 1018.69 1018.89 1019.07 1019.26 1019.48 1019.74 1020.06 1020.39 1020.73 1021.03 1021.28 1021.45 1021.57 1021.63 1021.66 1021.68 1021.73 1021.80 1021.91 1022.03 1022.17 1022.30 1022.42 1022.52 1022.58 1022.62
1012.36 1012.67 1013.03 1013.40 1013.75 1014.08 1014.39 1014.69 1015.00 1015.36 1015.75 1016.18 1016.64 1017.09 1017.51 1017.88 1018.20 1018.46 1018.68 1018.90 1019.14 1019.42 1019.76 1020.14 1020.54 1020.93 1021.28 1021.57 1021.78 1021.91 1021.98 1022.01 1022.03 1022.07 1022.13 1022.22 1022.34 1022.48 1022.61 1022.72 1022.81 1022.85 1022.86
1012.12 1012.37 1012.67 1013.00 1013.34 1013.67 1014.00 1014.34 1014.69 1015.07 1015.47 1015.90 1016.34 1016.76 1017.16 1017.52 1017.84 1018.12 1018.40 1018.68 1019.00 1019.37 1019.78 1020.24 1020.71 1021.16 1021.56 1021.89 1022.12 1022.27 1022.35 1022.38 1022.40 1022.41 1022.46 1022.53 1022.64 1022.76 1022.88 1022.98 1023.06 1023.09 1023.07
1011.84 1012.01 1012.24 1012.52 1012.83 1013.16 1013.51 1013.87 1014.24 1014.64 1015.04 1015.46 1015.87 1016.28 1016.67 1017.03 1017.37 1017.71 1018.05 1018.42 1018.83 1019.29 1019.79 1020.32 1020.85 1021.35 1021.79 1022.15 1022.41 1022.58 1022.67 1022.70 1022.71 1022.72 1022.75 1022.81 1022.89 1023.00 1023.11 1023.21 1023.27 1023.29 1023.26
1011.53 1011.61 1011.77 1011.98 1012.25 1012.57 1012.92 1013.29 1013.67 1014.07 1014.47 1014.87 1015.26 1015.65 1016.04 1016.42 1016.80 1017.20 1017.63 1018.09 1018.60 1019.14 1019.72 1020.30 1020.88 1021.41 1021.88 1022.26 1022.55 1022.74 1022.85 1022.91 1022.93 1022.94 1022.97 1023.02 1023.09 1023.19 1023.29 1023.38 1023.44 1023.47 1023.44
1011.18 1011.18 1011.26 1011.42 1011.64 1011.93 1012.27 1012.64 1013.02 1013.41 1013.79 1014.16 1014.54 1014.92 1015.31 1015.71 1016.15 1016.61 1017.12 1017.67 1018.25 1018.87 1019.50 1020.12 1020.72 1021.28 1021.76 1022.16 1022.47 1022.70 1022.84 1022.94 1022.99 1023.03 1023.08 1023.14 1023.22 1023.32 1023.42 1023.51 1023.58 1023.62 1023.60
1010.83 1010.76 1010.77 1010.86 1011.05 1011.30 1011.62 1011.97 1012.33 1012.70 1013.05 1013.40 1013.75 1014.12 1014.51 1014.94 1015.41 1015.94 1016.52 1017.13 1017.78 1018.44 1019.10 1019.74 1020.34 1020.90 1021.39 1021.81 1022.15 1022.42 1022.63 1022.78 1022.90 1022.99 1023.08 1023.17 1023.28 1023.39 1023.50 1023.61 1023.69 1023.74 1023.75
1010.52 1010.39 1010.34 1010.38 1010.52 1010.73 1011.01 1011.33 1011.66 1011.99 1012.31 1012.62 1012.95 1013.30 1013.68 1014.13 1014.64 1015.21 1015.83 1016.49 1017.17 1017.85 1018.51 1019.14 1019.74 1020.29 1020.79 1021.24 1021.63 1021.96 1022.24 1022.48 1022.68 1022.85 1023.00 1023.15 1023.29 1023.43 1023.56 1023.68 1023.78 1023.85 1023.87
1010.30 1010.13 1010.02 1010.01 1010.09 1010.25 1010.48 1010.75 1011.04 1011.32 1011.60 1011.87 1012.16 1012.49 1012.88 1013.33 1013.86 1014.45 1015.09 1015.77 1016.46 1017.13 1017.79 1018.41 1018.99 1019.54 1020.05 1020.53 1020.97 1021.38 1021.76 1022.09 1022.38 1022.64 1022.87 1023.08 1023.27 1023.44 1023.60 1023.74 1023.85 1023.93 1023.95
1010.21 1010.00 1009.84 1009.76 1009.77 1009.87 1010.03 1010.24 1010.46 1010.69 1010.92 1011.16 1011.42 1011.73 1012.11 1012.56 1013.10 1013.70 1014.35 1015.03 1015.72 1016.38 1017.02 1017.62 1018.20 1018.75 1019.28 1019.81 1020.32 1020.80 1021.27 1021.70 1022.09 1022.43 1022.74 1023.00 1023.24 1023.44 1023.63 1023.78 1023.90 1023.98 1024.01
1010.25 1010.00 1009.78 1009.62 1009.55 1009.55 1009.63 1009.75 1009.91 1010.08 1010.27 1010.47 1010.72 1011.02 1011.40 1011.86 1012.40 1013.01 1013.67 1014.35 1015.02 1015.68 1016.31 1016.91 1017.49 1018.06 1018.63 1019.20 1019.77 1020.33 1020.88 1021.39 1021.85 1022.27 1022.63 1022.94 1023.21 1023.45 1023.65 1023.81 1023.93 1024.01 1024.02
1010.40 1010.10 1009.80 1009.55 1009.37 1009.27 1009.24 1009.27 1009.35 1009.47 1009.62 1009.81 1010.05 1010.36 1010.76 1011.24 1011.80 1012.42 1013.09 1013.77 1014.45 1015.11 1015.75 1016.37 1016.97 1017.57 1018.18 1018.80 1019.43 1020.04 1020.64 1021.21 1021.72 1022.17 1022.57 1022.91 1023.20 1023.44 1023.65 1023.82 1023.93 1024.00 1024.00
Thickness
5760 5762 5760 5757 5755 5753 5751 5749 5747 5745 5744 5742 5740 5738 5736 5735 5733 5732 5730 5729 5728 5727 5727 5726 5724 5722 5720 5719 5717 5716 5714 5713 5711 5710 5709 5709 5708 5708 5707 5706 5706 5706 5705
5763 5760 5757 5754 5751 5749 5747 5745 5743 5741 5739 5737 5735 5734 5732 5730 5729 5728 5727 5726 5725 5724 5723 5722 5720 5718 5716 5714 5712 5711 5709 5708 5706 5705 5705 5704 5703 5703 5702 5702 5701 5701 5701
5761 5757 5754 5750 5748 5746 5743 5741 5739 5737 5735 5733 5731 5729 5728 5726 5725 5724 5723 5722 5721 5720 5719 5717 5715 5713 5711 5709 5707 5705 5704 5703 5702 5701 5700 5699 5699 5698 5698 5697 5697 5696 5696
5757 5753 5750 5747 5744 5742 5740 5737 5735 5732 5730 5729 5727 5725 5723 5722 5720 5719 5719 5718 5717 5715 5713 5711 5709 5707 5705 5704 5702 5700 5699 5698 5697 5696 5695 5694 5694 5694 5694 5693 5693 5692 5692
5752 5749 5746 5743 5740 5738 5736 5733 5731 5728 5726 5724 5722 5720 5719 5717 5716 5715 5714 5713 5711 5710 5708 5705 5703 5702 5700 5698 5696 5695 5694 5693 5692 5691 5690 5689 5689 5690 5689 5689 5688 5688 5687
5746 5744 5741 5739 5736 5734 5732 5730 5727 5724 5722 5720 5718 5716 5714 5713 5711 5710 5708 5706 5705 5703 5702 5700 5698 5696 5694 5692 5691 5690 5688 5687 5687 5685 5684 5684 5684 5685 5684 5684 5683 5683 5683
5740 5739 5737 5734 5732 5729 5727 5725 5723 5721 5718 5716 5713 5711 5710 5708 5706 5704 5702 5700 5699 5697 5696 5694 5692 5690 5688 5687 5685 5684 5683 5682 5681 5679 5679 5678 5679 5679 5679 5678 5677 5677 5676
5735 5734 5732 5729 5727 5725 5723 5721 5719 5716 5714 5712 5709 5707 5705 5703 5701 5699 5697 5695 5693 5691 5690 5688 5686 5684 5682 5681 5680 5678 5677 5676 5675 5674 5673 5672 5673 5673 5672 5671 5670 5670 5669
5729 5728 5726 5724 5722 5720 5718 5716 5714 5712 5710 5707 5705 5703 5700 5698 5696 5694 5691 5690 5688 5686 5684 5682 5680 5678 5676 5675 5674 5673 5672 5670 5669 5668 5667 5667 5667 5666 5665 5664 5663 5662 5661
5723 5722 5721 5719 5718 5715 5713 5712 5710 5707 5705 5703 5700 5698 5695 5693 5691 5688 5686 5685 5683 5681 5679 5677 5675 5673 5671 5669 5668 5667 5666 5664 5663 5662 5661 5661 5660 5659 5658 5657 5656 5654 5653
5716 5716 5716 5715 5713 5711 5709 5707 5705 5702 5700 5698 5696 5693 5691 5688 5686 5683 5681 5679 5678 5675 5673 5671 5669 5667 5665 5664 5662 5661 5660 5658 5657 5656 5655 5654 5653 5652 5650 5649 5648 5646 5645
5712 5711 5711 5710 5709 5707 5705 5703 5701 5698 5696 5693 5691 5688 5686 5683 5681 5678 5676 5674 5672 5670 5668 5666 5664 5662 5660 5658 5656 5655 5653 5652 5650 5649 5648 5648 5646 5644 5642 5641 5639 5638 5637
5711 5709 5709 5706 5705 5703 5702 5699 5697 5694 5692 5689 5687 5684 5681 5678 5676 5674 5672 5669 5667 5665 5663 5661 5658 5656 5654 5652 5650 5649 5647 5645 5644 5642 5641 5640 5639 5637 5634 5632 5631 5630 5629
5707 5706 5706 5703 5701 5699 5698 5696 5693 5691 5688 5685 5683 5680 5677 5674 5671 5669 5667 5665 5662 5660 5657 5655 5653 5650 5648 5646 5644 5642 5640 5639 5637 5636 5634 5633 5631 5629 5626 5624 5622 5621 5620
5703 5703 5702 5700 5698 5696 5694 5692 5690 5687 5685 5682 5680 5677 5675 5671 5668 5665 5663 5660 5658 5655 5653 5650 5648 5645 5642 5640 5638 5636 5633 5631 5630 5628 5627 5625 5623 5621 5619 5616 5614 5613 5612
5699 5699 5699 5697 5695 5692 5691 5689 5687 5684 5682 5679 5677 5675 5672 5669 5666 5662 5659 5656 5654 5651 5648 5645 5643 5640 5637 5634 5631 5629 5627 5625 5623 5621 5619 5617 5615 5613 5611 5608 5606 5604 5603
5696 5696 5696 5694 5692 5690 5688 5686 5684 5682 5679 5677 5675 5673 5670 5667 5663 5660 5657 5653 5650 5647 5644 5640 5637 5634 5631 5628 5625 5622 5620 5617 5615 5613 5611 5609 5607 5604 5602 5600 5597 5595 5594
5692 5692 5692 5692 5690 5688 5686 5684 5682 5680 5677 5676 5673 5671 5668 5665 5661 5658 5654 5651 5647 5643 5640 5636 5631 5627 5624 5621 5618 5615 5613 5610 5608 5606 5603 5601 5599 5596 5593 5591 5589 5587 5585
5689 5689 5689 5689 5689 5687 5685 5682 5680 5677 5675 5674 5671 5669 5667 5663 5659 5656 5652 5648 5644 5639 5635 5631 5626 5622 5617 5614 5611 5608 5605 5603 5601 5598 5596 5593 5590 5588 5585 5582 5580 5578 5576
5685 5686 5687 5687 5687 5685 5682 5678 5676 5674 5673 5671 5669 5668 5665 5661 5658 5653 5649 5645 5640 5635 5630 5626 5621 5616 5612 5608 5605 5600 5597 5595 5593 5591 5588 5585 5582 5579 5577 5574 5572 5569 5567
5678 5680 5682 5683 5684 5682 5679 5676 5674 5673 5672 5670 5669 5666 5663 5660 5656 5652 5647 5642 5637 5632 5628 5623 5616 5611 5605 5601 5597 5592 5589 5587 5585 5583 5581 5578 5575 5572 5569 5566 5563 5560 5558
5672 5675 5677 5679 5680 5680 5680 5679 5677 5674 5672 5670 5668 5665 5662 5659 5655 5650 5646 5641 5635 5629 5623 5619 5614 5607 5600 5597 5593 5587 5583 5580 5577 5576 5573 5570 5567 5564 5561 5558 5555 5552 5549
5665 5668 5672 5674 5675 5676 5677 5674 5671 5667 5665 5663 5662 5662 5660 5656 5652 5649 5645 5639 5634 5629 5623 5617 5613 5607 5597 5590 5589 5587 5581 5579 5572 5567 5564 5562 5559 5556 5553 5550 5546 5543 5540
5660 5662 5664 5667 5669 5670 5670 5669 5667 5666 5665 5666 5665 5661 5657 5653 5650 5646 5641 5637 5631 5626 5621 5615 5610 5605 5598 5587 5581 5579 5577 5576 5569 5562 5557 5553 5550 5547 5544 5541 5537 5533 5530
5652 5654 5657 5659 5661 5663 5663 5664 5663 5664 5664 5662 5658 5655 5652 5648 5645 5641 5637 5632 5627 5622 5618 5611 5605 5600 5596 5588 5580 5573 5567 5563 5561 5559 5553 5546 5541 5538 5535 5532 5528 5524 5520
5644 5646 5648 5650 5653 5655 5655 5656 5656 5657 5656 5653 5650 5647 5644 5640 5637 5634 5631 5627 5622 5617 5612 5606 5600 5594 5590 5585 5578 5572 5566 5560 5554 5549 5545 5537 5532 5528 5525 5521 5518 5514 5509